Weather Service Report


644 
ASUS44 KLUB 281701
RWRTX 
WEST TEXAS WEATHER ROUNDUP
NATIONAL WEATHER SERVICE LUBBOCK TX
1100 AM CST FRI NOV 28 2014

NOTE: "FAIR" INDICATES FEW OR NO CLOUDS BELOW 12,000 FEET WITH NO
SIGNIFICANT WEATHER AND/OR OBSTRUCTIONS TO VISIBILITY.

TXZ004-006>008-010-012-014-016-OKZ002-281800-
TEXAS PANHANDLE/OKLAHOMA PANHANDLE
  
CITY           SKY/WX    TMP DP  RH WIND       PRES   REMARKS
AMARILLO       MOSUNNY   62  26  25 SW7       30.04S                  
BORGER         MOSUNNY   59  25  27 W12       30.00F                  
DALHART        CLOUDY    62  25  24 SW13      30.02F                  
GUYMON         SUNNY     66  23  19 SW7       29.95F                  
$$

TXZ026-029-035-045-048-281800-
SOUTHERN PANHANDLE/SOUTH PLAINS/ROLLING PLAINS
  
CITY           SKY/WX    TMP DP  RH WIND       PRES   REMARKS
CHILDRESS      MOSUNNY   63  32  31 SW12      30.03F                  
LUBBOCK        PTSUNNY   62  30  29 SW13      30.11F                  
$$

TXZ052-054-060>062-072-078-127-140-154-169-281800-
PERMIAN BASIN/CONCHO VALLEY/BIG COUNTRY/EDWARDS PLATEAU  
  
CITY           SKY/WX    TMP DP  RH WIND       PRES   REMARKS
ABILENE        SUNNY     58  45  62 SW24G36   30.17F                  
JUNCTION       SUNNY     62  48  60 SW13G21   30.26F                  
MIDLAND        SUNNY     60  32  34 SW13      30.19S                  
ODESSA         SUNNY     59  31  34 SW12      30.20S                  
SAN ANGELO     SUNNY     63  45  51 S22G32    30.22S                  
WINK           SUNNY     57  31  37 VRB5      30.18F                  
$$

TXZ055-058-074-075-080-082-281800-
FAR WEST/SOUTHWEST MOUNTAINS/TRANS PECOS
  
CITY           SKY/WX    TMP DP  RH WIND       PRES   REMARKS
DRYDEN           N/A     58  37  45 S5        30.24F                  
EL PASO        MOSUNNY   53  24  32 N3        30.26S                  
FORT STOCKTON  LGT RAIN  69  24  18 SW16      30.19F                  
MARFA          SUNNY     57  27  30 S6        30.32S                  
$$

TXZ014-016-019-021>030-083-281800
TEXAS TECH WEST TEXAS MESONET/TEXAS PANHANDLE/NORTHERN SOUTH PLAINS
  
CITY           SKY/WX    TMP DP  RH WIND       PRES   REMARKS
ABERNATHY 5ENE   N/A     60  29  31 SW10      30.11S                  
AMARILLO 9NNE    N/A     62  27  26 W3        30.02F                  
AMARILLO 7SSE    N/A     60  28  29 W15       30.05S                  
AMHERST 1NE      N/A     67  22  18 W12       30.11F                  
BOOTLEG 11WNW    N/A     68  22  17 W15       30.10F                  
CANADIAN 6E      N/A     55  32  42 SW3       29.96F                  
CAPROCK CYN SP   N/A     61  27  27 S6        30.04F                  
CHILDRESS 2NNE   N/A     60  32  34 SW16      30.02F                  
CLARENDON 2WSW   N/A     60  28  29 SW10      30.02S                  
CLAUDE 12SW      N/A     56  29  35 SW6       30.04F                  
DIMMITT 2NE      N/A     62  27  26 SW14      30.08F                  
FLOYDADA 2NNE    N/A     58  28  30 SW16      30.08F                  
FRIONA 2NE       N/A     66  23  19 W16       30.09F                  
GOODLETT 3W      N/A     60  35  38 SW20      30.02F                  
HART 3N          N/A     56  29  35 SW15      30.09S                  
HEREFORD 2NW     N/A     62  25  25 SW13      30.07F                  
MCLEAN 1E        N/A     67  27  22 W6        29.98F                  
MEMPHIS 1NE      N/A     59  31  33 SW10      30.01F                  
MULESHOE 2SSW    N/A     62  25  24 W16       30.12S                  
OLTON 6S         N/A     66  26  21 SW14      30.10F                  
PALO DURO SP     N/A     65  27  23 SW1       30.05F                  
PAMPA 2E         N/A     65  25  21 W10       30.00F                  
PLAINVIEW 1S     N/A     61  29  29 W14       30.08F                  
SILVERTON 7ESE   N/A     56  29  36 SW22      30.05F                  
TULIA 2ENE       N/A     60  29  30 SW16      30.06S                  
TURKEY 2WSW      N/A     63  29  27 SW20      30.02F                  
UMBARGER 3NNE    N/A     60  28  30 SW14      30.06S                  
$$

TXZ033>036-039>041-045>048-281800
TEXAS TECH WEST TEXAS MESONET/SOUTH PLAINS  
  
CITY           SKY/WX    TMP DP  RH WIND       PRES   REMARKS
AIKEN 3WSW       N/A     64  28  26 W17       30.09F                  
ANDREWS 2NE      N/A     61  30  31 SW10      30.18F                  
ANTON 6SSW       N/A     61  31  32 SW10      30.12S                  
BROWNFIELD 2S    N/A     56  33  42 SW10      30.14F                  
DENVR CTY 7WNW   N/A     57  28  33 SW10      30.16S                  
GAIL 2ESE        N/A     56  37  49 SW14      30.15F                  
LAMESA 2SE       N/A     55  36  48 SW14      30.17F                  
LEVELLAND 4S     N/A     62  27  26 SW9       30.13S                  
LUBBOCK 3WNW     N/A     60  30  31 SW8       30.12F                  
MORTON 1ENE      N/A     64  27  24 W9        30.13S                  
ODONNELL 1N      N/A     54  33  45 SW14      30.15F                  
PLAINS 3N        N/A     61  28  29 SW10      30.15S                  
RALLS 1SE        N/A     59  31  34 SW15      30.11F                  
REESE CENTER     N/A     59  28  30 SW10      30.12S                  
SEAGRAVES 1SW    N/A     57  32  39 SW12      30.16F                  
SEMINOLE 2NNE    N/A     59  30  33 SW8       30.16F                  
SLATON 2NE       N/A     56  32  40 SW15      30.12F                  
SNYDER 3E        N/A     59  40  49 SW17      30.15F                  
SUNDOWN 8SW      N/A     63  28  26 SW10      30.13S                  
TAHOKA 3NNE      N/A     56  32  40 SW15      30.14S                  
WOLFFORTH 6SSW   N/A     57  31  37 SW10      30.14S                  
$$

TXZ031-032-036>038-042>044-281800-
TEXAS TECH WEST TEXAS MESONET/ROLLING PLAINS 
  
CITY           SKY/WX    TMP DP  RH WIND       PRES   REMARKS
ASPERMONT 3NE    N/A     60  40  47 SW18      30.12F                  
GRAHAM 5SSW      N/A     55  34  43 SW12      30.14F                  
GUTHRIE 10WSW    N/A     59  36  42 SW17      30.09S                  
HASKELL 1NW      N/A     58  41  53 S20       30.12F                  
KNOX CITY 3NW    N/A     60  39  47 SW18      30.11F                  
LK A HENRY 1NW   N/A     57  37  46 SW14      30.12F                  
NORTHFIELD 1S    N/A     66  30  26 SW13      30.03F                  
ODELL 4ENE       N/A     59  38  46 S22       30.05F                  
PADUCAH 10SW     N/A     61  34  36 S21       30.05F                  
POST 1NE         N/A     57  34  41 SW13      30.13S                  
RRING SPRGS 3N   N/A     63  31  30 SW17      30.05F                  
SEYMOUR 3NW      N/A     56  41  56 SW23      30.10F                  
SPUR 1W          N/A     57  34  41 SW16      30.10F                  
WEINERT 2NNE     N/A     59  42  53 SW21      30.11F                  
WHITE RVR 6NE    N/A     58  33  39 SW13      30.10F                  
$$

TXZ052-054-060>062-072-078-127-140-154-169-281800-
TEXAS TECH WEST TEXAS MESONET/PERMIAN BASIN/
CONCHO VALLEY/BIG COUNTRY/EDWARDS PLATEAU
  
CITY           SKY/WX    TMP DP  RH WIND       PRES   REMARKS
COYANOSA 2N      N/A     59  31  35 E2        30.20S                  
JUNCTION 1SSW    N/A     61  48  62 S21       30.26F                  
MERTZON 3NNE     N/A     61  45  54 S23       30.22F                  
SAN ANGELO 7NW   N/A     61  45  54 S14       30.22F                  
STRLNG CT 4WSW   N/A     61  41  48 S14       30.20F                  
ST LAWRNCE 5SW   N/A     60  35  39 S16       30.20F                  
SWEETWATR 11SW   N/A     60  40  47 S18       30.18S                  
WALL 1E          N/A     61  46  56 S20G30    30.22F                  
$$

TXZ055-058-074-075-080-082-281800-
TEXAS TECH WEST TEXAS MESONET/FAR WEST/SOUTHWEST MOUNTAINS/TRANS PECOS
  
CITY           SKY/WX    TMP DP  RH WIND       PRES   REMARKS
PRSMN GAP BBNP   N/A     57  33  40 S6        30.28S                  
GUADLPE MTN NP   N/A     55  19  24 SW20      30.25S                  
$$

Return to Home page


Western Regional Climate Center, wrcc@dri.edu